Simultaneous Nadir Overpasses (SNOs) Predictions

Prediction of SNOs between GOES-17 and TERRA Satellite Orbit:

Table of predicted SNOs for the next 14.0 days since TLE Epoch: 3/28/2020
Index Date Time (GOES-17) GOES-17 Lat,Lon TERRA Lat,Lon Distance(km) Time Diff (sec)
1 03/29/2020 07:22:30 -0.02,-137.21 0.74,-133.54 416.72 80
2 03/29/2020 19:43:46 0.02,-137.22 0.31,-138.71 168.66 80
3 03/31/2020 19:34:13 0.01,-137.20 -0.29,-135.74 166.26 80
4 04/01/2020 07:55:36 -0.01,-137.19 -0.81,-140.93 425.35 80
5 04/03/2020 07:43:24 -0.02,-137.16 -0.21,-137.96 91.33 80
6 04/05/2020 07:28:32 -0.02,-137.13 0.46,-135.00 242.35 80
7 04/05/2020 19:49:46 0.02,-137.13 0.65,-140.15 344.01 80
8 04/07/2020 19:37:33 0.02,-137.09 0.05,-137.18 11.00 80
9 04/09/2020 19:28:00 0.02,-137.05 -0.57,-134.22 321.54 80
10 04/10/2020 07:49:24 -0.02,-137.03 -0.52,-139.41 270.37 80




NCC Satellite Simultaneous Nadir Overpasses (SNOs) Prediction Service
